| time (UTC) | temp C | wind direction | speed KPH | gust KPH | rain 1hr cm | rain 24hr cm | rain mn cm | humidity % | barometer mb |
| 20260508142020 | 17 | 222 | 3.2 | 6.4 | 0.00 | 0.00 | 0.00 | 66 | 1017.4 |
| 20260508141025 | 17 | 252 | 6.4 | 12.9 | 0.00 | 0.00 | 0.00 | 65 | 1017.5 |
| 20260508140031 | 16 | 231 | 3.2 | 11.3 | 0.00 | 0.00 | 0.00 | 67 | 1017.5 |
| 20260508135038 | 16 | 193 | 4.8 | 11.3 | 0.00 | 0.00 | 0.00 | 66 | 1017.5 |
| 20260508134023 | 15 | 230 | 1.6 | 11.3 | 0.00 | 0.00 | 0.00 | 67 | 1017.7 |
| 20260508133028 | 15 | 218 | 3.2 | 11.3 | 0.00 | 0.00 | 0.00 | 67 | 1017.6 |
| 20260508132033 | 15 | 190 | 1.6 | 6.4 | 0.00 | 0.00 | 0.00 | 68 | 1017.7 |
| 20260508131021 | 14 | 220 | 1.6 | 6.4 | 0.00 | 0.00 | 0.00 | 68 | 1017.7 |
| 20260508130046 | 13 | 202 | 1.6 | 6.4 | 0.00 | 0.00 | 0.00 | 70 | 1017.6 |
| 20260508125032 | 13 | 178 | 1.6 | 4.8 | 0.00 | 0.00 | 0.00 | 72 | 1017.5 |
| 20260508124019 | 13 | 190 | 1.6 | 4.8 | 0.00 | 0.00 | 0.00 | 73 | 1017.5 |
| 20260508123024 | 12 | 189 | 1.6 | 3.2 | 0.00 | 0.00 | 0.00 | 75 | 1017.6 |
| 20260508122029 | 11 | 153 | 0.0 | 3.2 | 0.00 | 0.00 | 0.00 | 80 | 1017.2 |
| 20260508121016 | 10 | 116 | 1.6 | 3.2 | 0.00 | 0.00 | 0.00 | 83 | 1017.2 |
| 20260508120038 | 9 | 118 | 0.0 | 1.6 | 0.00 | 0.00 | 0.00 | 86 | 1017.2 |
| 20260508115026 | 8 | 103 | 0.0 | 1.6 | 0.00 | 0.00 | 0.00 | 91 | 1017.1 |
| 20260508114031 | 7 | 0.0 | 0.0 | 0.00 | 0.00 | 0.00 | 93 | 1016.8 | |
| 20260508113036 | 7 | 110 | 0.0 | 1.6 | 0.00 | 0.00 | 0.00 | 97 | 1016.6 |
| 20260508112042 | 6 | 0.0 | 0.0 | 0.00 | 0.00 | 0.00 | 98 | 1016.5 | |
| 20260508111030 | 6 | 0.0 | 0.0 | 0.00 | 0.00 | 0.00 | 98 | 1016.3 | |
| 20260508110034 | 6 | 0.0 | 0.0 | 0.00 | 0.00 | 0.00 | 98 | 1016.7 | |
| 20260508105059 | 6 | 0.0 | 0.0 | 0.00 | 0.00 | 0.00 | 98 | 1016.5 | |
| 20260508104027 | 6 | 0.0 | 0.0 | 0.00 | 0.00 | 0.00 | 98 | 1016.5 | |
| 20260508103033 | 6 | 72 | 0.0 | 3.2 | 0.00 | 0.00 | 0.00 | 98 | 1016.6 |
| 20260508102038 | 6 | 96 | 1.6 | 4.8 | 0.00 | 0.00 | 0.00 | 98 | 1016.5 |
| 20260508101042 | 6 | 0.0 | 0.0 | 0.00 | 0.00 | 0.00 | 98 | 1016.4 | |
| 20260508100030 | 6 | 0.0 | 0.0 | 0.00 | 0.00 | 0.00 | 98 | 1016.3 | |
| 20260508095019 | 6 | 79 | 1.6 | 4.8 | 0.00 | 0.00 | 0.00 | 98 | 1016.4 |
| 20260508094023 | 7 | 0.0 | 0.0 | 0.00 | 0.00 | 0.00 | 98 | 1016.2 | |
| 20260508093028 | 7 | 0.0 | 0.0 | 0.00 | 0.00 | 0.00 | 99 | 1016.3 | |
| 20260508092016 | 6 | 288 | 0.0 | 1.6 | 0.00 | 0.00 | 0.00 | 99 | 1016.5 |
| 20260508091021 | 6 | 0.0 | 0.0 | 0.00 | 0.00 | 0.00 | 99 | 1016.4 | |
| 20260508090026 | 6 | 0.0 | 0.0 | 0.00 | 0.00 | 0.00 | 99 | 1016.5 | |
| 20260508085031 | 6 | 0.0 | 0.0 | 0.00 | 0.00 | 0.00 | 99 | 1016.7 | |
| 20260508084100 | 6 | 0.0 | 0.0 | 0.00 | 0.00 | 0.00 | 99 | 1016.7 | |
| 20260508083024 | 6 | 0.0 | 0.0 | 0.00 | 0.00 | 0.00 | 99 | 1016.6 | |
| 20260508082049 | 6 | 0.0 | 0.0 | 0.00 | 0.00 | 0.00 | 99 | 1016.8 | |
| 20260508081017 | 6 | 0.0 | 0.0 | 0.00 | 0.00 | 0.00 | 99 | 1016.9 | |
| 20260508080022 | 6 | 0.0 | 0.0 | 0.00 | 0.00 | 0.00 | 99 | 1016.9 | |
| 20260508075047 | 6 | 0.0 | 0.0 | 0.00 | 0.00 | 0.00 | 99 | 1017.1 | |
| 20260508074032 | 6 | 0.0 | 0.0 | 0.00 | 0.00 | 0.00 | 99 | 1017.2 | |
| 20260508073020 | 6 | 0.0 | 0.0 | 0.00 | 0.00 | 0.00 | 99 | 1017.2 | |
| 20260508072025 | 6 | 0.0 | 0.0 | 0.00 | 0.00 | 0.00 | 99 | 1017.2 | |
| 20260508071030 | 6 | 0.0 | 0.0 | 0.00 | 0.00 | 0.00 | 99 | 1017.3 | |
| 20260508070018 | 6 | 0.0 | 0.0 | 0.00 | 0.00 | 0.00 | 98 | 1017.3 | |
| 20260508065022 | 7 | 0.0 | 0.0 | 0.00 | 0.00 | 0.00 | 98 | 1017.3 | |
| 20260508064028 | 7 | 0.0 | 0.0 | 0.00 | 0.00 | 0.00 | 98 | 1017.5 | |
| 20260508063053 | 7 | 0.0 | 0.0 | 0.00 | 0.00 | 0.00 | 98 | 1017.6 | |
| 20260508062020 | 7 | 0.0 | 0.0 | 0.00 | 0.00 | 0.00 | 98 | 1017.6 | |
| 20260508061025 | 7 | 0.0 | 0.0 | 0.00 | 0.00 | 0.00 | 98 | 1017.6 | |
| 20260508060030 | 7 | 0.0 | 0.0 | 0.00 | 0.00 | 0.00 | 98 | 1017.7 | |
| 20260508055018 | 7 | 0.0 | 0.0 | 0.00 | 0.00 | 0.00 | 98 | 1017.7 | |
| 20260508054023 | 7 | 0.0 | 0.0 | 0.00 | 0.00 | 0.00 | 98 | 1017.7 | |
| 20260508053028 | 7 | 0.0 | 0.0 | 0.00 | 0.00 | 0.00 | 98 | 1017.4 | |
| 20260508052017 | 7 | 0.0 | 0.0 | 0.00 | 0.00 | 0.00 | 98 | 1017.6 | |
| 20260508051021 | 7 | 0.0 | 1.6 | 0.00 | 0.00 | 0.00 | 98 | 1017.6 | |
| 20260508050047 | 7 | 0.0 | 0.0 | 0.00 | 0.00 | 0.00 | 97 | 1017.7 | |
| 20260508045031 | 7 | 0.0 | 0.0 | 0.00 | 0.00 | 0.00 | 97 | 1017.7 | |
| 20260508044040 | 8 | 326 | 0.0 | 1.6 | 0.00 | 0.00 | 0.00 | 97 | 1017.6 |
| 20260508043024 | 8 | 0.0 | 0.0 | 0.00 | 0.00 | 0.00 | 97 | 1017.4 | |
| 20260508042029 | 8 | 0.0 | 0.0 | 0.00 | 0.00 | 0.00 | 97 | 1017.5 | |
| 20260508041018 | 8 | 0.0 | 0.0 | 0.00 | 0.00 | 0.00 | 96 | 1017.4 | |
| 20260508040022 | 8 | 0.0 | 0.0 | 0.00 | 0.00 | 0.00 | 96 | 1017.5 | |
| 20260508035027 | 8 | 0.0 | 0.0 | 0.00 | 0.00 | 0.00 | 96 | 1017.7 | |
| 20260508034032 | 8 | 0.0 | 0.0 | 0.00 | 0.00 | 0.00 | 95 | 1017.7 | |
| 20260508033020 | 8 | 0.0 | 0.0 | 0.00 | 0.00 | 0.00 | 95 | 1017.5 | |
| 20260508032024 | 9 | 0.0 | 0.0 | 0.00 | 0.00 | 0.00 | 94 | 1017.4 | |
| 20260508031030 | 9 | 0.0 | 0.0 | 0.00 | 0.00 | 0.00 | 94 | 1017.4 | |
| 20260508030018 | 9 | 0.0 | 0.0 | 0.00 | 0.00 | 0.00 | 93 | 1017.5 | |
| 20260508025023 | 9 | 0.0 | 0.0 | 0.00 | 0.00 | 0.00 | 92 | 1017.4 | |
| 20260508024048 | 10 | 0.0 | 0.0 | 0.00 | 0.00 | 0.00 | 91 | 1017.2 | |
| 20260508023033 | 9 | 0.0 | 0.0 | 0.00 | 0.00 | 0.00 | 89 | 1017.3 | |
| 20260508022020 | 10 | 0.0 | 0.0 | 0.00 | 0.00 | 0.00 | 88 | 1017.3 | |
| 20260508021025 | 10 | 0.0 | 0.0 | 0.00 | 0.00 | 0.00 | 87 | 1017.1 | |
| 20260508020052 | 10 | 0.0 | 0.0 | 0.00 | 0.00 | 0.00 | 84 | 1017.0 | |
| 20260508015018 | 11 | 0.0 | 0.0 | 0.00 | 0.00 | 0.00 | 82 | 1017.1 | |
| 20260508014045 | 11 | 0.0 | 0.0 | 0.00 | 0.00 | 0.00 | 79 | 1016.9 | |
| 20260508013028 | 11 | 0.0 | 0.0 | 0.00 | 0.00 | 0.00 | 78 | 1016.8 | |
| 20260508012016 | 12 | 0.0 | 0.0 | 0.00 | 0.00 | 0.00 | 74 | 1016.8 | |
| 20260508011022 | 12 | 0.0 | 0.0 | 0.00 | 0.00 | 0.00 | 76 | 1016.7 | |
| 20260508010047 | 13 | 325 | 0.0 | 1.6 | 0.00 | 0.00 | 0.00 | 72 | 1016.6 |
| 20260508005051 | 14 | 0.0 | 0.0 | 0.00 | 0.00 | 0.00 | 65 | 1016.4 | |
| 20260508004039 | 15 | 0.0 | 0.0 | 0.00 | 0.00 | 0.00 | 60 | 1016.4 | |
| 20260508003045 | 16 | 0.0 | 0.0 | 0.00 | 0.00 | 0.00 | 57 | 1016.3 | |
| 20260508002029 | 17 | 0.0 | 0.0 | 0.00 | 0.00 | 0.00 | 50 | 1016.2 | |
| 20260508001017 | 17 | 0.0 | 0.0 | 0.00 | 0.00 | 0.00 | 48 | 1016.4 | |
| 20260508000022 | 19 | 284 | 0.0 | 1.6 | 0.00 | 0.00 | 0.00 | 41 | 1016.3 |
| 20260507235027 | 18 | 294 | 1.6 | 3.2 | 0.00 | 0.00 | 0.00 | 37 | 1016.2 |
| 20260507234032 | 18 | 267 | 1.6 | 3.2 | 0.00 | 0.00 | 0.00 | 38 | 1016.1 |
| 20260507233020 | 19 | 292 | 3.2 | 6.4 | 0.00 | 0.00 | 0.00 | 40 | 1016.5 |
| 20260507232025 | 19 | 296 | 0.0 | 1.6 | 0.00 | 0.00 | 0.00 | 37 | 1016.4 |
| 20260507231030 | 19 | 296 | 1.6 | 3.2 | 0.00 | 0.00 | 0.00 | 36 | 1016.4 |
| 20260507230039 | 19 | 322 | 3.2 | 6.4 | 0.00 | 0.00 | 0.00 | 37 | 1016.5 |
| 20260507225023 | 19 | 272 | 4.8 | 9.7 | 0.00 | 0.00 | 0.00 | 38 | 1016.6 |
| 20260507224028 | 20 | 286 | 4.8 | 11.3 | 0.00 | 0.00 | 0.00 | 37 | 1016.7 |
| 20260507223015 | 19 | 289 | 3.2 | 12.9 | 0.00 | 0.00 | 0.00 | 38 | 1016.7 |
| 20260507222020 | 19 | 266 | 4.8 | 9.7 | 0.00 | 0.00 | 0.00 | 38 | 1016.6 |
| 20260507221026 | 20 | 304 | 4.8 | 16.1 | 0.00 | 0.00 | 0.00 | 38 | 1016.6 |
| 20260507220032 | 21 | 272 | 1.6 | 3.2 | 0.00 | 0.00 | 0.00 | 35 | 1016.8 |
| 20260507215019 | 21 | 49 | 1.6 | 3.2 | 0.00 | 0.00 | 0.00 | 38 | 1016.9 |
| 20260507214023 | 19 | 332 | 4.8 | 9.7 | 0.00 | 0.00 | 0.00 | 39 | 1016.6 |
| 20260507213028 | 20 | 284 | 1.6 | 9.7 | 0.00 | 0.00 | 0.00 | 38 | 1016.6 |
| 20260507212016 | 20 | 270 | 4.8 | 11.3 | 0.00 | 0.00 | 0.00 | 40 | 1016.6 |
| 20260507211022 | 19 | 242 | 1.6 | 6.4 | 0.00 | 0.00 | 0.00 | 38 | 1016.7 |
| 20260507210027 | 19 | 291 | 3.2 | 9.7 | 0.00 | 0.00 | 0.00 | 39 | 1016.7 |
| 20260507205032 | 19 | 261 | 6.4 | 14.5 | 0.00 | 0.00 | 0.00 | 41 | 1016.6 |
| 20260507204019 | 19 | 121 | 1.6 | 9.7 | 0.00 | 0.00 | 0.00 | 40 | 1016.8 |
| 20260507203025 | 20 | 292 | 4.8 | 12.9 | 0.00 | 0.00 | 0.00 | 39 | 1017.0 |
| 20260507202029 | 20 | 346 | 3.2 | 9.7 | 0.00 | 0.00 | 0.00 | 40 | 1016.9 |
| 20260507201038 | 20 | 56 | 1.6 | 3.2 | 0.00 | 0.00 | 0.00 | 39 | 1017.1 |
| 20260507200043 | 19 | 289 | 3.2 | 6.4 | 0.00 | 0.00 | 0.00 | 42 | 1017.1 |
| 20260507195027 | 20 | 300 | 4.8 | 11.3 | 0.00 | 0.00 | 0.00 | 41 | 1017.1 |
| 20260507194038 | 20 | 299 | 1.6 | 3.2 | 0.00 | 0.00 | 0.00 | 39 | 1017.5 |
| 20260507193041 | 19 | 293 | 1.6 | 4.8 | 0.00 | 0.00 | 0.00 | 42 | 1017.5 |
| 20260507192025 | 18 | 290 | 3.2 | 16.1 | 0.00 | 0.00 | 0.00 | 43 | 1017.5 |
| 20260507191030 | 18 | 85 | 1.6 | 3.2 | 0.00 | 0.00 | 0.00 | 40 | 1017.4 |
| 20260507190018 | 19 | 306 | 3.2 | 9.7 | 0.00 | 0.00 | 0.00 | 42 | 1017.7 |
| 20260507185023 | 18 | 294 | 1.6 | 4.8 | 0.00 | 0.00 | 0.00 | 40 | 1017.7 |
| 20260507184049 | 18 | 345 | 3.2 | 12.9 | 0.00 | 0.00 | 0.00 | 42 | 1017.8 |
| 20260507183033 | 17 | 298 | 4.8 | 12.9 | 0.00 | 0.00 | 0.00 | 42 | 1017.8 |
| 20260507182021 | 18 | 310 | 1.6 | 9.7 | 0.00 | 0.00 | 0.00 | 42 | 1018.0 |
| 20260507181026 | 17 | 229 | 1.6 | 9.7 | 0.00 | 0.00 | 0.00 | 40 | 1018.0 |
| 20260507180031 | 17 | 336 | 6.4 | 12.9 | 0.00 | 0.00 | 0.00 | 41 | 1018.1 |
| 20260507175018 | 18 | 340 | 4.8 | 11.3 | 0.00 | 0.00 | 0.00 | 42 | 1018.3 |
| 20260507174024 | 17 | 162 | 1.6 | 11.3 | 0.00 | 0.00 | 0.00 | 43 | 1018.3 |
| 20260507173029 | 17 | 330 | 1.6 | 11.3 | 0.00 | 0.00 | 0.00 | 41 | 1018.3 |
| 20260507172016 | 17 | 332 | 3.2 | 6.4 | 0.00 | 0.00 | 0.00 | 42 | 1018.5 |
| 20260507171042 | 17 | 40 | 1.6 | 4.8 | 0.00 | 0.00 | 0.00 | 46 | 1018.6 |
| 20260507170027 | 17 | 313 | 1.6 | 6.4 | 0.00 | 0.00 | 0.00 | 43 | 1018.7 |
| 20260507165032 | 17 | 293 | 1.6 | 4.8 | 0.00 | 0.00 | 0.00 | 42 | 1018.9 |
| 20260507164019 | 17 | 313 | 1.6 | 4.8 | 0.00 | 0.00 | 0.00 | 42 | 1019.1 |
| 20260507163024 | 16 | 327 | 4.8 | 11.3 | 0.00 | 0.00 | 0.00 | 44 | 1019.1 |
| 20260507162029 | 17 | 216 | 1.6 | 3.2 | 0.00 | 0.00 | 0.00 | 45 | 1019.1 |
| 20260507161018 | 16 | 294 | 1.6 | 6.4 | 0.00 | 0.00 | 0.00 | 45 | 1019.0 |
| 20260507160022 | 17 | 18 | 1.6 | 6.4 | 0.00 | 0.00 | 0.00 | 46 | 1019.2 |
| 20260507155027 | 16 | 303 | 4.8 | 11.3 | 0.00 | 0.00 | 0.00 | 49 | 1019.1 |
| 20260507154032 | 16 | 305 | 1.6 | 6.4 | 0.00 | 0.00 | 0.00 | 48 | 1019.3 |
| 20260507153020 | 16 | 23 | 0.0 | 4.8 | 0.00 | 0.00 | 0.00 | 47 | 1019.2 |
| 20260507152025 | 15 | 289 | 3.2 | 4.8 | 0.00 | 0.00 | 0.00 | 50 | 1019.2 |
| 20260507151031 | 16 | 330 | 3.2 | 4.8 | 0.00 | 0.00 | 0.00 | 49 | 1019.0 |
| 20260507150018 | 16 | 318 | 1.6 | 3.2 | 0.00 | 0.00 | 0.00 | 51 | 1019.2 |
| 20260507145023 | 16 | 337 | 0.0 | 4.8 | 0.00 | 0.00 | 0.00 | 53 | 1019.3 |
| 20260507144028 | 15 | 51 | 1.6 | 3.2 | 0.00 | 0.00 | 0.00 | 56 | 1019.3 |
| 20260507143036 | 15 | 29 | 1.6 | 3.2 | 0.00 | 0.00 | 0.00 | 59 | 1019.4 |